Time,TemperatureF,DewpointF,PressureIn,WindDirection,WindDirectionDegrees,WindSpeedMPH,WindSpeedGustMPH,Humidity,HourlyPrecipIn,Conditions,Clouds,dailyrainin,SoftwareType,DateUTC
2013-08-15 00:00:00,62.2,59.5,30.05,East,92,6.0,6.0,91,0.00,,,1.19,Wunderground v.1.15,2013-08-15 05:00:00,
2013-08-15 00:10:00,62.2,59.5,30.05,East,98,4.0,4.0,91,0.00,,,1.19,Wunderground v.1.15,2013-08-15 05:10:00,
2013-08-15 00:20:00,62.1,59.4,30.05,East,88,5.0,5.0,91,0.00,,,1.19,Wunderground v.1.15,2013-08-15 05:20:00,
2013-08-15 00:30:00,62.0,59.3,30.05,ENE,77,3.0,12.0,91,0.00,,,1.19,Wunderground v.1.15,2013-08-15 05:30:00,
2013-08-15 00:35:00,61.9,59.2,30.05,ESE,111,4.0,12.0,91,0.00,,,1.19,Wunderground v.1.15,2013-08-15 05:35:00,
2013-08-15 00:40:00,61.8,59.1,30.05,ESE,107,4.0,12.0,91,0.00,,,1.19,Wunderground v.1.15,2013-08-15 05:40:00,
2013-08-15 00:50:00,61.7,59.0,30.05,East,101,4.0,12.0,91,0.00,,,1.19,Wunderground v.1.15,2013-08-15 05:50:00,
2013-08-15 01:00:00,61.7,59.0,30.05,ENE,78,4.0,4.0,91,0.00,,,1.19,Wunderground v.1.15,2013-08-15 06:00:00,
2013-08-15 01:10:00,61.6,58.9,30.05,East,90,3.0,3.0,91,0.00,,,0.00,Wunderground v.1.15,2013-08-15 06:10:00,
2013-08-15 01:15:00,61.5,58.8,30.04,ESE,105,4.0,4.0,91,0.00,,,0.00,Wunderground v.1.15,2013-08-15 06:15:00,
2013-08-15 01:20:00,61.3,58.7,30.04,ESE,103,5.0,12.0,91,0.00,,,0.00,Wunderground v.1.15,2013-08-15 06:20:00,
2013-08-15 01:30:00,61.1,58.5,30.03,East,93,6.0,6.0,91,0.00,,,0.00,Wunderground v.1.15,2013-08-15 06:30:00,
2013-08-15 01:40:00,61.0,58.4,30.03,East,94,5.0,12.0,91,0.00,,,0.00,Wunderground v.1.15,2013-08-15 06:40:00,
2013-08-15 01:50:00,60.9,58.3,30.02,ESE,112,6.0,6.0,91,0.00,,,0.00,Wunderground v.1.15,2013-08-15 06:50:00,
2013-08-15 02:00:00,60.9,58.3,30.02,East,92,4.0,12.0,91,0.00,,,0.00,Wunderground v.1.15,2013-08-15 07:00:00,
2013-08-15 02:05:00,60.9,58.3,30.03,SSE,150,3.0,12.0,91,0.00,,,0.00,Wunderground v.1.15,2013-08-15 07:05:00,
2013-08-15 02:15:00,60.9,58.3,30.02,SSE,150,3.0,12.0,91,0.00,,,0.00,Wunderground v.1.15,2013-08-15 07:15:00,
2013-08-15 02:20:00,60.8,58.2,30.02,East,95,3.0,3.0,91,0.00,,,0.00,Wunderground v.1.15,2013-08-15 07:20:00,
2013-08-15 02:30:00,60.8,58.5,30.02,SSE,149,1.0,12.0,92,0.00,,,0.00,Wunderground v.1.15,2013-08-15 07:30:00,
2013-08-15 02:40:00,60.7,58.4,30.02,SSE,150,2.0,12.0,92,0.00,,,0.00,Wunderground v.1.15,2013-08-15 07:40:00,
2013-08-15 02:50:00,60.6,58.3,30.02,SSE,161,2.0,2.0,92,0.00,,,0.00,Wunderground v.1.15,2013-08-15 07:50:00,
2013-08-15 03:00:00,60.5,58.2,30.02,SE,124,1.0,12.0,92,0.00,,,0.00,Wunderground v.1.15,2013-08-15 08:00:00,
2013-08-15 03:05:00,60.4,57.8,30.02,ESE,114,2.0,12.0,91,0.00,,,0.00,Wunderground v.1.15,2013-08-15 08:05:00,
2013-08-15 03:15:00,60.4,58.1,30.02,ESE,106,2.0,12.0,92,0.00,,,0.00,Wunderground v.1.15,2013-08-15 08:15:00,
2013-08-15 03:20:00,60.3,58.0,30.02,ESE,105,2.0,2.0,92,0.00,,,0.00,Wunderground v.1.15,2013-08-15 08:20:00,
2013-08-15 03:30:00,60.2,57.9,30.02,East,80,1.0,12.0,92,0.00,,,0.00,Wunderground v.1.15,2013-08-15 08:30:00,
2013-08-15 03:40:00,60.2,57.9,30.02,ESE,121,1.0,12.0,92,0.00,,,0.00,Wunderground v.1.15,2013-08-15 08:40:00,
2013-08-15 03:50:00,60.1,57.8,30.02,East,90,3.0,3.0,92,0.00,,,0.00,Wunderground v.1.15,2013-08-15 08:50:00,
2013-08-15 03:55:00,60.1,57.8,30.01,ESE,103,2.0,12.0,92,0.00,,,0.00,Wunderground v.1.15,2013-08-15 08:55:00,
2013-08-15 04:00:00,60.1,57.8,30.01,East,79,2.0,12.0,92,0.00,,,0.00,Wunderground v.1.15,2013-08-15 09:00:00,
2013-08-15 04:10:00,60.0,57.7,30.01,East,90,2.0,2.0,92,0.00,,,0.00,Wunderground v.1.15,2013-08-15 09:10:00,
2013-08-15 04:20:00,60.0,57.7,30.01,SE,138,2.0,12.0,92,0.00,,,0.00,Wunderground v.1.15,2013-08-15 09:20:00,
2013-08-15 04:30:00,60.0,57.7,30.02,East,90,2.0,2.0,92,0.00,,,0.00,Wunderground v.1.15,2013-08-15 09:30:00,
2013-08-15 04:35:00,60.0,57.7,30.01,ESE,107,1.0,12.0,92,0.00,,,0.00,Wunderground v.1.15,2013-08-15 09:35:00,
2013-08-15 04:40:00,60.0,57.7,30.01,ENE,77,2.0,12.0,92,0.00,,,0.00,Wunderground v.1.15,2013-08-15 09:40:00,
2013-08-15 04:50:00,60.0,57.7,30.01,East,98,2.0,12.0,92,0.00,,,0.00,Wunderground v.1.15,2013-08-15 09:50:00,
2013-08-15 05:00:00,60.0,57.7,30.01,ESE,117,3.0,3.0,92,0.00,,,0.00,Wunderground v.1.15,2013-08-15 10:00:00,
2013-08-15 05:10:00,60.0,57.7,30.01,ESE,120,2.0,12.0,92,0.00,,,0.00,Wunderground v.1.15,2013-08-15 10:10:00,
2013-08-15 05:15:00,60.0,57.7,30.01,ESE,103,2.0,12.0,92,0.00,,,0.00,Wunderground v.1.15,2013-08-15 10:15:00,
2013-08-15 05:20:00,60.0,57.7,30.01,ESE,113,2.0,12.0,92,0.00,,,0.00,Wunderground v.1.15,2013-08-15 10:20:00,
2013-08-15 05:30:00,60.0,57.7,30.01,SSE,148,1.0,12.0,92,0.00,,,0.00,Wunderground v.1.15,2013-08-15 10:30:00,
2013-08-15 05:40:00,59.9,57.6,30.00,ESE,105,1.0,12.0,92,0.00,,,0.00,Wunderground v.1.15,2013-08-15 10:40:00,
2013-08-15 05:50:00,59.8,57.5,30.00,East,98,2.0,12.0,92,0.00,,,0.00,Wunderground v.1.15,2013-08-15 10:50:00,
2013-08-15 05:55:00,59.8,57.5,30.00,ESE,113,2.0,12.0,92,0.00,,,0.00,Wunderground v.1.15,2013-08-15 10:55:00,
2013-08-15 06:00:00,59.8,57.5,30.00,ESE,105,1.0,2.0,92,0.00,,,0.00,Wunderground v.1.15,2013-08-15 11:00:00,
2013-08-15 06:10:00,59.8,57.5,30.00,SE,127,2.0,2.0,92,0.00,,,0.00,Wunderground v.1.15,2013-08-15 11:10:00,
2013-08-15 06:20:00,59.8,57.5,30.00,SE,143,2.0,8.0,92,0.00,,,0.00,Wunderground v.1.15,2013-08-15 11:20:00,
2013-08-15 06:30:00,59.7,57.4,30.00,East,88,2.0,6.0,92,0.00,,,0.00,Wunderground v.1.15,2013-08-15 11:30:00,
2013-08-15 06:40:00,59.7,57.4,30.00,SSE,147,3.0,6.0,92,0.00,,,0.00,Wunderground v.1.15,2013-08-15 11:40:00,
2013-08-15 06:45:00,59.7,57.4,30.00,ESE,109,3.0,6.0,92,0.00,,,0.00,Wunderground v.1.15,2013-08-15 11:45:00,
2013-08-15 06:50:00,59.7,57.4,30.00,ESE,116,3.0,6.0,92,0.00,,,0.00,Wunderground v.1.15,2013-08-15 11:50:00,
2013-08-15 07:00:00,59.8,57.5,30.00,SE,136,1.0,6.0,92,0.00,,,0.00,Wunderground v.1.15,2013-08-15 12:00:00,
2013-08-15 07:10:00,59.8,57.5,30.00,East,97,1.0,6.0,92,0.00,,,0.00,Wunderground v.1.15,2013-08-15 12:10:00,
2013-08-15 07:20:00,59.8,57.5,29.99,East,96,5.0,5.0,92,0.00,,,0.00,Wunderground v.1.15,2013-08-15 12:20:00,
2013-08-15 07:25:00,59.8,57.5,29.99,ESE,113,5.0,6.0,92,0.00,,,0.00,Wunderground v.1.15,2013-08-15 12:25:00,
2013-08-15 07:30:00,59.9,57.6,29.99,East,90,4.0,6.0,92,0.00,,,0.00,Wunderground v.1.15,2013-08-15 12:30:00,
2013-08-15 07:40:00,60.0,57.7,29.99,ESE,103,5.0,6.0,92,0.00,,,0.00,Wunderground v.1.15,2013-08-15 12:40:00,
2013-08-15 07:50:00,60.1,58.1,30.00,SE,144,2.0,2.0,93,0.00,,,0.00,Wunderground v.1.15,2013-08-15 12:50:00,
2013-08-15 08:00:00,60.2,58.2,30.01,South,175,1.0,6.0,93,0.00,,,0.00,Wunderground v.1.15,2013-08-15 13:00:00,
2013-08-15 08:10:00,60.3,58.3,30.01,SE,140,2.0,6.0,93,0.00,,,0.00,Wunderground v.1.15,2013-08-15 13:10:00,
2013-08-15 08:20:00,60.4,58.4,30.01,ESE,111,3.0,3.0,93,0.00,,,0.00,Wunderground v.1.15,2013-08-15 13:20:00,
2013-08-15 08:30:00,60.3,58.3,30.01,East,91,4.0,6.0,93,0.00,,,0.00,Wunderground v.1.15,2013-08-15 13:30:00,
2013-08-15 08:40:00,60.4,58.4,30.01,East,93,3.0,7.0,93,0.00,,,0.00,Wunderground v.1.15,2013-08-15 13:40:00,
2013-08-15 08:45:00,60.3,58.3,30.02,ESE,107,3.0,7.0,93,0.00,,,0.00,Wunderground v.1.15,2013-08-15 13:45:00,
2013-08-15 08:55:00,60.4,58.4,30.01,East,96,4.0,6.0,93,0.00,,,0.00,Wunderground v.1.15,2013-08-15 13:55:00,
2013-08-15 09:00:00,60.5,58.5,30.01,East,91,4.0,6.0,93,0.00,,,0.00,Wunderground v.1.15,2013-08-15 14:00:00,
2013-08-15 09:10:00,60.8,58.8,30.01,ESE,121,4.0,4.0,93,0.00,,,0.00,Wunderground v.1.15,2013-08-15 14:10:00,
2013-08-15 09:15:00,60.8,58.8,30.01,East,96,3.0,6.0,93,0.00,,,0.00,Wunderground v.1.15,2013-08-15 14:15:00,
2013-08-15 09:25:00,60.7,58.7,30.01,East,93,4.0,6.0,93,0.00,,,0.00,Wunderground v.1.15,2013-08-15 14:25:00,
2013-08-15 09:35:00,60.9,58.9,30.02,East,85,3.0,6.0,93,0.00,,,0.00,Wunderground v.1.15,2013-08-15 14:35:00,
2013-08-15 09:40:00,60.9,58.9,30.02,South,170,2.0,6.0,93,0.00,,,0.00,Wunderground v.1.15,2013-08-15 14:40:00,
2013-08-15 09:45:00,60.8,58.8,30.02,East,90,3.0,6.0,93,0.00,,,0.00,Wunderground v.1.15,2013-08-15 14:45:00,
2013-08-15 09:55:00,61.2,59.2,30.01,East,86,2.0,6.0,93,0.00,,,0.00,Wunderground v.1.15,2013-08-15 14:55:00,
2013-08-15 10:05:00,61.3,59.3,30.01,East,85,3.0,6.0,93,0.00,,,0.00,Wunderground v.1.15,2013-08-15 15:05:00,
2013-08-15 10:10:00,61.3,59.3,30.01,East,97,3.0,6.0,93,0.00,,,0.00,Wunderground v.1.15,2013-08-15 15:10:00,
2013-08-15 10:20:00,61.5,59.5,30.01,ENE,71,4.0,6.0,93,0.00,,,0.00,Wunderground v.1.15,2013-08-15 15:20:00,
2013-08-15 10:30:00,61.8,59.8,30.01,East,84,4.0,6.0,93,0.00,,,0.00,Wunderground v.1.15,2013-08-15 15:30:00,
2013-08-15 10:40:00,61.9,59.9,30.01,ESE,105,4.0,4.0,93,0.00,,,0.00,Wunderground v.1.15,2013-08-15 15:40:00,
2013-08-15 10:50:00,62.2,60.2,30.01,East,86,4.0,6.0,93,0.00,,,0.00,Wunderground v.1.15,2013-08-15 15:50:00,
2013-08-15 11:00:00,62.5,60.4,30.01,ENE,71,4.0,4.0,93,0.00,,,0.00,Wunderground v.1.15,2013-08-15 16:00:00,
2013-08-15 11:10:00,62.6,60.5,30.02,ESE,112,3.0,3.0,93,0.00,,,0.00,Wunderground v.1.15,2013-08-15 16:10:00,
2013-08-15 11:15:00,62.5,60.4,30.02,East,83,3.0,5.0,93,0.00,,,0.00,Wunderground v.1.15,2013-08-15 16:15:00,
2013-08-15 11:25:00,62.6,60.5,30.02,ENE,68,4.0,6.0,93,0.00,,,0.00,Wunderground v.1.15,2013-08-15 16:25:00,
2013-08-15 11:35:00,62.5,60.4,30.02,ENE,67,4.0,6.0,93,0.00,,,0.00,Wunderground v.1.15,2013-08-15 16:35:00,
2013-08-15 11:40:00,62.5,60.4,30.02,SE,130,4.0,6.0,93,0.00,,,0.00,Wunderground v.1.15,2013-08-15 16:40:00,
2013-08-15 11:50:00,62.5,60.4,30.02,ENE,74,3.0,6.0,93,0.00,,,0.00,Wunderground v.1.15,2013-08-15 16:50:00,
2013-08-15 12:00:00,62.6,60.2,30.03,East,97,4.0,4.0,92,0.00,,,0.00,Wunderground v.1.15,2013-08-15 17:00:00,
2013-08-15 12:10:00,62.8,60.7,30.02,East,83,3.0,3.0,93,0.00,,,0.00,Wunderground v.1.15,2013-08-15 17:10:00,
2013-08-15 12:20:00,62.8,60.7,30.02,East,87,2.0,6.0,93,0.00,,,0.00,Wunderground v.1.15,2013-08-15 17:20:00,
2013-08-15 12:30:00,63.1,60.7,30.02,East,95,3.0,6.0,92,0.00,,,0.00,Wunderground v.1.15,2013-08-15 17:30:00,
2013-08-15 12:35:00,63.2,60.8,30.02,East,98,3.0,6.0,92,0.00,,,0.00,Wunderground v.1.15,2013-08-15 17:35:00,
2013-08-15 12:45:00,63.1,60.7,30.02,East,86,3.0,6.0,92,0.00,,,0.00,Wunderground v.1.15,2013-08-15 17:45:00,
2013-08-15 12:55:00,63.2,60.8,30.01,ESE,103,4.0,6.0,92,0.00,,,0.00,Wunderground v.1.15,2013-08-15 17:55:00,
2013-08-15 13:00:00,63.3,60.9,30.01,East,90,4.0,6.0,92,0.00,,,0.00,Wunderground v.1.15,2013-08-15 18:00:00,
2013-08-15 13:10:00,63.3,60.9,30.02,ENE,67,3.0,6.0,92,0.00,,,0.00,Wunderground v.1.15,2013-08-15 18:10:00,
2013-08-15 13:20:00,63.4,61.0,30.02,East,84,3.0,6.0,92,0.00,,,0.00,Wunderground v.1.15,2013-08-15 18:20:00,
2013-08-15 13:25:00,63.6,61.2,30.02,East,94,2.0,6.0,92,0.00,,,0.00,Wunderground v.1.15,2013-08-15 18:25:00,
2013-08-15 13:35:00,63.6,61.2,30.02,East,80,2.0,6.0,92,0.00,,,0.00,Wunderground v.1.15,2013-08-15 18:35:00,
2013-08-15 13:40:00,63.8,61.4,30.02,East,85,1.0,6.0,92,0.00,,,0.00,Wunderground v.1.15,2013-08-15 18:40:00,
2013-08-15 13:50:00,63.7,61.3,30.02,ENE,78,2.0,6.0,92,0.00,,,0.00,Wunderground v.1.15,2013-08-15 18:50:00,
2013-08-15 13:55:00,63.9,61.5,30.02,ENE,78,2.0,6.0,92,0.00,,,0.00,Wunderground v.1.15,2013-08-15 18:55:00,
2013-08-15 14:05:00,64.2,61.8,30.02,East,80,2.0,6.0,92,0.00,,,0.00,Wunderground v.1.15,2013-08-15 19:05:00,
2013-08-15 14:10:00,64.6,62.2,30.02,NNE,31,2.0,6.0,92,0.00,,,0.00,Wunderground v.1.15,2013-08-15 19:10:00,
2013-08-15 14:20:00,65.3,62.9,30.02,NE,35,2.0,2.0,92,0.00,,,0.00,Wunderground v.1.15,2013-08-15 19:20:00,
2013-08-15 14:30:00,65.4,62.7,30.01,ENE,61,3.0,6.0,91,0.00,,,0.00,Wunderground v.1.15,2013-08-15 19:30:00,
2013-08-15 14:40:00,65.7,63.0,30.01,ENE,74,3.0,6.0,91,0.00,,,0.00,Wunderground v.1.15,2013-08-15 19:40:00,
2013-08-15 14:45:00,66.0,63.0,30.01,East,82,3.0,6.0,90,0.00,,,0.00,Wunderground v.1.15,2013-08-15 19:45:00,
2013-08-15 14:50:00,66.1,63.1,30.01,East,96,4.0,6.0,90,0.00,,,0.00,Wunderground v.1.15,2013-08-15 19:50:00,
2013-08-15 14:55:00,66.5,63.5,30.01,East,88,4.0,6.0,90,0.00,,,0.00,Wunderground v.1.15,2013-08-15 19:55:00,
2013-08-15 15:05:00,67.3,63.6,30.01,ENE,74,4.0,6.0,88,0.00,,,0.00,Wunderground v.1.15,2013-08-15 20:05:00,
2013-08-15 15:15:00,67.6,63.9,30.00,ENE,67,3.0,6.0,88,0.00,,,0.00,Wunderground v.1.15,2013-08-15 20:15:00,
2013-08-15 15:20:00,67.6,63.6,30.00,ENE,61,3.0,6.0,87,0.00,,,0.00,Wunderground v.1.15,2013-08-15 20:20:00,
2013-08-15 15:30:00,67.5,63.5,30.00,ENE,64,4.0,6.0,87,0.00,,,0.00,Wunderground v.1.15,2013-08-15 20:30:00,
2013-08-15 15:40:00,67.9,63.9,30.00,ENE,69,5.0,5.0,87,0.00,,,0.00,Wunderground v.1.15,2013-08-15 20:40:00,
2013-08-15 15:45:00,68.0,63.7,30.00,East,91,4.0,6.0,86,0.00,,,0.00,Wunderground v.1.15,2013-08-15 20:45:00,
2013-08-15 15:55:00,67.9,63.6,30.00,East,88,4.0,6.0,86,0.00,,,0.00,Wunderground v.1.15,2013-08-15 20:55:00,
2013-08-15 16:00:00,67.9,63.6,30.00,East,83,5.0,6.0,86,0.00,,,0.00,Wunderground v.1.15,2013-08-15 21:00:00,
2013-08-15 16:10:00,67.9,63.6,30.00,NE,38,3.0,3.0,86,0.00,,,0.00,Wunderground v.1.15,2013-08-15 21:10:00,
2013-08-15 16:15:00,67.7,63.4,30.00,East,86,3.0,4.0,86,0.00,,,0.00,Wunderground v.1.15,2013-08-15 21:15:00,
2013-08-15 16:20:00,67.5,62.8,30.00,ENE,78,4.0,6.0,85,0.00,,,0.00,Wunderground v.1.15,2013-08-15 21:20:00,
2013-08-15 16:25:00,67.4,62.7,30.00,East,84,3.0,6.0,85,0.00,,,0.00,Wunderground v.1.15,2013-08-15 21:25:00,
2013-08-15 16:30:00,67.2,62.9,30.00,East,80,3.0,6.0,86,0.00,,,0.00,Wunderground v.1.15,2013-08-15 21:30:00,
2013-08-15 16:40:00,67.0,62.7,30.00,East,85,4.0,6.0,86,0.00,,,0.00,Wunderground v.1.15,2013-08-15 21:40:00,
2013-08-15 16:50:00,66.9,62.6,30.01,East,93,3.0,3.0,86,0.00,,,0.00,Wunderground v.1.15,2013-08-15 21:50:00,
2013-08-15 16:55:00,67.0,62.7,30.01,East,81,2.0,4.0,86,0.00,,,0.00,Wunderground v.1.15,2013-08-15 21:55:00,
2013-08-15 17:05:00,66.9,62.6,30.01,East,87,3.0,6.0,86,0.00,,,0.00,Wunderground v.1.15,2013-08-15 22:05:00,
2013-08-15 17:15:00,66.7,62.4,30.01,East,86,2.0,6.0,86,0.00,,,0.00,Wunderground v.1.15,2013-08-15 22:15:00,
2013-08-15 17:20:00,66.7,62.4,30.01,East,86,1.0,1.0,86,0.00,,,0.00,Wunderground v.1.15,2013-08-15 22:20:00,
2013-08-15 17:30:00,66.8,62.5,30.02,NE,40,1.0,1.0,86,0.00,,,0.00,Wunderground v.1.15,2013-08-15 22:30:00,
2013-08-15 17:35:00,66.8,62.5,30.02,NE,38,1.0,6.0,86,0.00,,,0.00,Wunderground v.1.15,2013-08-15 22:35:00,
2013-08-15 17:45:00,66.7,62.7,30.02,ENE,57,2.0,6.0,87,0.00,,,0.00,Wunderground v.1.15,2013-08-15 22:45:00,
2013-08-15 17:50:00,66.7,62.7,30.02,ENE,65,1.0,1.0,87,0.00,,,0.00,Wunderground v.1.15,2013-08-15 22:50:00,
2013-08-15 18:00:00,66.8,62.8,30.02,ENE,74,1.0,1.0,87,0.00,,,0.00,Wunderground v.1.15,2013-08-15 23:00:00,
2013-08-15 18:10:00,66.7,62.4,30.02,NNE,22,2.0,2.0,86,0.00,,,0.00,Wunderground v.1.15,2013-08-15 23:10:00,
2013-08-15 18:20:00,66.6,62.3,30.02,NNE,24,1.0,4.0,86,0.00,,,0.00,Wunderground v.1.15,2013-08-15 23:20:00,
2013-08-15 18:25:00,66.5,62.5,30.02,East,84,1.0,4.0,87,0.00,,,0.00,Wunderground v.1.15,2013-08-15 23:25:00,
2013-08-15 18:35:00,66.1,62.1,30.02,ENE,71,2.0,4.0,87,0.00,,,0.00,Wunderground v.1.15,2013-08-15 23:35:00,
2013-08-15 18:40:00,65.8,61.8,30.02,ENE,67,2.0,4.0,87,0.00,,,0.00,Wunderground v.1.15,2013-08-15 23:40:00,
2013-08-15 18:50:00,65.5,61.9,30.02,East,86,2.0,4.0,88,0.00,,,0.00,Wunderground v.1.15,2013-08-15 23:50:00,
2013-08-15 19:00:00,65.1,61.5,30.02,ENE,74,2.0,4.0,88,0.00,,,0.00,Wunderground v.1.15,2013-08-16 00:00:00,
2013-08-15 19:05:00,64.9,61.6,30.02,ENE,57,2.0,4.0,89,0.00,,,0.00,Wunderground v.1.15,2013-08-16 00:05:00,
2013-08-15 19:15:00,64.5,61.2,30.02,NNE,22,2.0,4.0,89,0.00,,,0.00,Wunderground v.1.15,2013-08-16 00:15:00,
2013-08-15 19:20:00,64.5,61.2,30.02,East,84,2.0,4.0,89,0.00,,,0.00,Wunderground v.1.15,2013-08-16 00:20:00,
2013-08-15 19:30:00,64.3,61.3,30.03,ENE,78,2.0,2.0,90,0.00,,,0.01,Wunderground v.1.15,2013-08-16 00:30:00,
2013-08-15 19:40:00,64.1,61.1,30.03,ENE,78,4.0,4.0,90,0.00,,,0.01,Wunderground v.1.15,2013-08-16 00:40:00,
2013-08-15 19:50:00,63.8,60.8,30.03,East,86,5.0,5.0,90,0.00,,,0.01,Wunderground v.1.15,2013-08-16 00:50:00,
2013-08-15 19:55:00,63.7,60.7,30.03,East,96,5.0,5.0,90,0.00,,,0.01,Wunderground v.1.15,2013-08-16 00:55:00,
2013-08-15 20:00:00,63.6,60.9,30.04,ENE,69,5.0,5.0,91,0.00,,,0.01,Wunderground v.1.15,2013-08-16 01:00:00,
2013-08-15 20:10:00,63.4,60.7,30.04,East,83,5.0,5.0,91,0.00,,,0.01,Wunderground v.1.15,2013-08-16 01:10:00,
2013-08-15 20:25:00,63.3,60.6,30.05,ESE,103,4.0,5.0,91,0.00,,,0.01,Wunderground v.1.15,2013-08-16 01:25:00,
2013-08-15 20:30:00,63.2,60.5,30.05,ESE,105,4.0,6.0,91,0.00,,,0.01,Wunderground v.1.15,2013-08-16 01:30:00,
2013-08-15 20:35:00,63.1,60.4,30.05,East,84,4.0,6.0,91,0.00,,,0.01,Wunderground v.1.15,2013-08-16 01:35:00,
2013-08-15 20:45:00,62.9,60.2,30.06,ENE,76,6.0,6.0,91,0.00,,,0.01,Wunderground v.1.15,2013-08-16 01:45:00,